Weather History for Manning, SC

Change the Weather History Date:

Saturday, October 5, 2013

  Actual Average (KCKI) Record (KCKI)
Temperature  
Mean Temperature 76 °F -  
Max Temperature 89 °F 80 °F 89 °F (2013)
Min Temperature 62 °F 52 °F 42 °F (2014)
Cooling Degree Days 10    
Growing Degree Days 26 (Base 50)    
Moisture  
Dew Point 64 °F    
Average Humidity 74    
Maximum Humidity 100    
Minimum Humidity 12    
Precipitation  
Precipitation 0.00 in - - ()
Sea Level Pressure  
Sea Level Pressure 30.09 in    
Wind  
Wind Speed 1 mph (East)    
Max Wind Speed 6 mph    
Max Gust Speed -    
Visibility 7 miles    
Events      
Averages and records for this station are not official NWS values.
T = Trace of Precipitation, MM = Missing Value Source: NWS Daily Summary

Daily Weather History Graph

Daily Weather History Graph

Search for Another Location

Airport:

Trip Planner

Search our weather history database for the weather conditions in past years. The results will help you decide how hot, cold, wet, or windy it might be!

Date:

Astronomy

Oct. 05, 2013 Rise Set
Actual Time 7:18 AM EDT 6:59 PM EDT
Civil Twilight 6:53 AM EDT 7:24 PM EDT
Nautical Twilight 6:24 AM EDT 7:53 PM EDT
Astronomical Twilight 5:55 AM EDT 8:22 PM EDT
Moon 7:52 AM EDT (10/5) 7:22 PM EDT (10/5)
Length of Visible Light 12h 31m
Length of Day
11h 41m
New Moon, 0% of the Moon is Illuminated
Oct 5
New Moon
Oct 11
First Quarter
Oct 18
Full
Oct 26
Last Quarter
Nov 3
New

Hourly Weather History & Observations

Time (EDT) Temp. Heat Index Dew Point Humidity Pressure Visibility Wind Dir Wind Speed Gust Speed Precip Events Conditions
12:15 AM 68.0 °F - 68.0 °F 100% 30.12 in 10.0 mi Calm Calm - N/A   Clear
12:35 AM 68.0 °F - 68.0 °F 100% 30.12 in 7.0 mi Calm Calm - N/A   Clear
12:55 AM 68.0 °F - 68.0 °F 100% 30.11 in 10.0 mi Calm Calm - N/A   Clear
1:15 AM 66.2 °F - - N/A% 30.11 in 10.0 mi Calm Calm - N/A   Clear
1:35 AM 66.2 °F - - N/A% 30.11 in 7.0 mi Calm Calm - N/A   Clear
1:55 AM 66.2 °F - 66.2 °F 100% 30.10 in 7.0 mi Calm Calm - N/A   Clear
2:15 AM 64.4 °F - 64.4 °F 100% 30.10 in 7.0 mi Calm Calm - N/A   Clear
2:35 AM 64.4 °F - 64.4 °F 100% 30.10 in 7.0 mi Calm Calm - N/A   Clear
2:55 AM 64.4 °F - 64.4 °F 100% 30.10 in 7.0 mi Calm Calm - N/A   Mostly Cloudy
3:15 AM 64.4 °F - 64.4 °F 100% 30.10 in 0.5 mi Calm Calm - N/A   Overcast
3:35 AM 64.4 °F - 64.4 °F 100% 30.09 in 5.0 mi Calm Calm - N/A   Overcast
3:55 AM 64.4 °F - 64.4 °F 100% 30.09 in 0.5 mi Calm Calm - N/A   Overcast
4:15 AM 64.4 °F - 62.6 °F 94% 30.09 in 1.2 mi Calm Calm - N/A   Overcast
4:35 AM 64.4 °F - 60.8 °F 88% 30.09 in 1.5 mi Calm Calm - N/A   Overcast
4:55 AM 64.4 °F - 62.6 °F 94% 30.09 in 0.2 mi Calm Calm - N/A   Overcast
5:15 AM 64.4 °F - 62.6 °F 94% 30.09 in 0.5 mi Calm Calm - N/A   Overcast
5:35 AM 64.4 °F - 62.6 °F 94% 30.10 in 0.2 mi Calm Calm - N/A   Overcast
5:55 AM 62.6 °F - 59.0 °F 88% 30.10 in 1.0 mi Calm Calm - N/A   Overcast
6:15 AM 62.6 °F - 60.8 °F 94% 30.11 in 1.0 mi Calm Calm - N/A   Overcast
6:35 AM 62.6 °F - 62.6 °F 100% 30.11 in 2.5 mi Calm Calm - N/A   Overcast
6:55 AM 62.6 °F - 62.6 °F 100% 30.11 in 2.0 mi Calm Calm - N/A   Overcast
7:15 AM 62.6 °F - 62.6 °F 100% 30.12 in 0.2 mi Calm Calm - N/A   Overcast
7:35 AM 62.6 °F - 62.6 °F 100% 30.13 in 5.0 mi Calm Calm - N/A   Overcast
7:55 AM 62.6 °F - 62.6 °F 100% 30.13 in 5.0 mi Calm Calm - N/A   Overcast
8:15 AM 62.6 °F - 62.6 °F 100% 30.13 in 0.8 mi Calm Calm - N/A   Overcast
8:35 AM 64.4 °F - 64.4 °F 100% 30.13 in 2.5 mi Calm Calm - N/A   Mostly Cloudy
8:55 AM 68.0 °F - 68.0 °F 100% 30.14 in 7.0 mi Calm Calm - N/A   Scattered Clouds
9:15 AM 69.8 °F - 68.0 °F 94% 30.14 in 7.0 mi Calm Calm - N/A   Clear
9:55 AM 77.0 °F - 69.8 °F 78% 30.14 in 10.0 mi NNW 4.6 mph - N/A   Clear
10:15 AM 78.8 °F - 69.8 °F 74% 30.14 in 10.0 mi Calm Calm - N/A   Clear
10:35 AM 80.6 °F 83.2 °F 68.0 °F 65% 30.13 in 10.0 mi North 4.6 mph - N/A   Clear
10:55 AM 80.6 °F 83.2 °F 68.0 °F 65% 30.13 in 7.0 mi Calm Calm - N/A   Clear
11:15 AM 82.4 °F 85.4 °F 68.0 °F 62% 30.13 in 7.0 mi Calm Calm - N/A   Clear
11:35 AM 84.2 °F 86.6 °F 66.2 °F 55% 30.13 in 10.0 mi North 3.5 mph - N/A   Clear
11:55 AM 84.2 °F 85.6 °F 64.4 °F 51% 30.12 in 10.0 mi Calm Calm - N/A   Clear
12:15 PM 86.0 °F - 26.6 °F 12% 30.12 in 10.0 mi North 4.6 mph - N/A   Clear
12:35 PM 86.0 °F - 51.8 °F 31% 30.11 in 10.0 mi NNE 5.8 mph - N/A   Clear
12:55 PM 86.0 °F 87.3 °F 64.4 °F 48% 30.11 in 7.0 mi Calm Calm - N/A   Clear
1:15 PM 86.0 °F 87.3 °F 64.4 °F 48% 30.10 in 5.0 mi Calm Calm - N/A   Clear
1:35 PM 86.0 °F 86.6 °F 62.6 °F 45% 30.09 in 7.0 mi Calm Calm - N/A   Scattered Clouds
1:55 PM 87.8 °F 88.5 °F 62.6 °F 43% 30.08 in 7.0 mi Calm Calm - N/A   Scattered Clouds
2:15 PM 89.6 °F 91.1 °F 64.4 °F 43% 30.08 in 7.0 mi NE 4.6 mph - N/A   Scattered Clouds
2:35 PM 87.8 °F 87.6 °F 60.8 °F 40% 30.07 in 10.0 mi SE 4.6 mph - N/A   Scattered Clouds
2:55 PM 87.8 °F 88.5 °F 62.6 °F 43% 30.06 in 10.0 mi Calm Calm - N/A   Clear
3:15 PM 89.6 °F 91.1 °F 64.4 °F 43% 30.06 in 10.0 mi East 5.8 mph - N/A   Scattered Clouds
3:35 PM 87.8 °F 88.5 °F 62.6 °F 43% 30.05 in 7.0 mi Calm Calm - N/A   Scattered Clouds
3:55 PM 87.8 °F 88.5 °F 62.6 °F 43% 30.05 in 10.0 mi SE 3.5 mph - N/A   Scattered Clouds
4:15 PM 89.6 °F 90.1 °F 62.6 °F 40% 30.05 in 7.0 mi East 3.5 mph - N/A   Scattered Clouds
4:35 PM 87.8 °F 88.5 °F 62.6 °F 43% 30.05 in 10.0 mi Calm Calm - N/A   Clear
4:55 PM 87.8 °F 88.5 °F 62.6 °F 43% 30.05 in 10.0 mi Calm Calm - N/A   Clear
5:15 PM 87.8 °F 88.5 °F 62.6 °F 43% 30.05 in 10.0 mi SE 3.5 mph - N/A   Clear
5:35 PM 87.8 °F 89.4 °F 64.4 °F 46% 30.04 in 10.0 mi Calm Calm - N/A   Clear
5:55 PM 86.0 °F 88.2 °F 66.2 °F 51% 30.04 in 10.0 mi Calm Calm - N/A   Clear
6:15 PM 86.0 °F 88.2 °F 66.2 °F 51% 30.04 in 10.0 mi Calm Calm - N/A   Clear
6:35 PM 82.4 °F 86.3 °F 69.8 °F 66% 30.04 in 10.0 mi Calm Calm - N/A   Scattered Clouds
6:55 PM 80.6 °F 83.2 °F 68.0 °F 65% 30.04 in 10.0 mi ESE 3.5 mph - N/A   Scattered Clouds
7:15 PM 78.8 °F - 68.0 °F 69% 30.04 in 10.0 mi ESE 3.5 mph - N/A   Clear
7:35 PM 78.8 °F - 68.0 °F 69% 30.04 in 10.0 mi Calm Calm - N/A   Clear
7:55 PM 77.0 °F - 66.2 °F 69% 30.05 in 10.0 mi SE 3.5 mph - N/A   Clear
8:15 PM 77.0 °F - 66.2 °F 69% 30.05 in 10.0 mi SE 3.5 mph - N/A   Clear
8:35 PM 73.4 °F - 64.4 °F 73% 30.06 in 10.0 mi Calm Calm - N/A   Clear
8:55 PM 71.6 °F - 64.4 °F 78% 30.07 in 10.0 mi Calm Calm - N/A   Clear
9:15 PM 71.6 °F - 64.4 °F 78% 30.07 in 10.0 mi Calm Calm - N/A   Clear
9:55 PM 69.8 °F - 60.8 °F 73% 30.08 in 10.0 mi Calm Calm - N/A   Clear
10:15 PM 68.0 °F - 64.4 °F 88% 30.08 in 10.0 mi Calm Calm - N/A   Clear
10:35 PM 68.0 °F - 64.4 °F 88% 30.08 in 10.0 mi Calm Calm - N/A   Clear
10:55 PM 68.0 °F - 66.2 °F 94% 30.08 in 10.0 mi Calm Calm - N/A   Clear
11:15 PM 68.0 °F - 66.2 °F 94% 30.08 in 10.0 mi Calm Calm - N/A   Clear
11:35 PM 68.0 °F - 66.2 °F 94% 30.08 in 10.0 mi Calm Calm - N/A   Clear
11:55 PM 66.2 °F - 64.4 °F 94% 30.08 in 10.0 mi Calm Calm - N/A   Clear